,,,PA_Meas_PMT16A,,PR_Meas_QMR101_102,,RH_Meas_QMH101,,SR_Meas_QMS101,,TA_Meas_QMH101,,GenWind,,GenWind,
date,time,status,PA,status,PR,status,RH,status,SR,status,TA,status,DirAvg,status,SpdAvg,
2010-12-06, 00:00:04,VALID,996.69,VALID,0,VALID,93.9511,VALID,0,VALID,22.864,VALID,24,VALID,0.56875,
2010-12-06, 00:01:04,VALID,996.679,VALID,0,VALID,93.9664,VALID,0,VALID,22.8232,VALID,24,VALID,0.534766,
2010-12-06, 00:02:04,VALID,996.637,VALID,0,VALID,93.974,VALID,0,VALID,22.8037,VALID,24,VALID,0.286328,
2010-12-06, 00:03:04,VALID,996.595,VALID,0,VALID,93.974,VALID,0,VALID,22.8232,VALID,24,VALID,0,
2010-12-06, 00:04:04,VALID,996.6,VALID,0,VALID,93.974,VALID,0,VALID,22.8445,VALID,24,VALID,0,
2010-12-06, 00:05:04,VALID,996.569,VALID,0,VALID,93.974,VALID,0,VALID,22.903,VALID,24,VALID,0.135547,
2010-12-06, 00:06:04,VALID,996.517,VALID,0,VALID,93.9588,VALID,0,VALID,22.9615,VALID,24,VALID,0,
2010-12-06, 00:07:04,VALID,996.533,VALID,0,VALID,93.9511,VALID,0,VALID,22.9598,VALID,24,VALID,0,
2010-12-06, 00:08:04,VALID,996.509,VALID,0,VALID,93.9435,VALID,0,VALID,23.0201,VALID,24,VALID,0,
2010-12-06, 00:09:04,VALID,996.482,VALID,0,VALID,93.9664,VALID,0,VALID,23.0006,VALID,24,VALID,0.376563,
2010-12-06, 00:10:04,VALID,996.457,VALID,0,VALID,93.9588,VALID,0,VALID,22.9793,VALID,32,VALID,0.814062,
2010-12-06, 00:11:04,VALID,996.4,VALID,0,VALID,93.9511,VALID,0,VALID,22.9793,VALID,48,VALID,1.2293,
2010-12-06, 00:12:04,VALID,996.379,VALID,0,VALID,93.9588,VALID,0,VALID,22.9208,VALID,55,VALID,1.1082,
2010-12-06, 00:13:04,VALID,996.367,VALID,0,VALID,93.974,VALID,0,VALID,22.8818,VALID,70,VALID,1.0168,
2010-12-06, 00:14:04,VALID,996.363,VALID,0,VALID,93.974,VALID,0,VALID,22.8818,VALID,70,VALID,0.775391,
2010-12-06, 00:15:04,VALID,996.344,VALID,0,VALID,93.9511,VALID,0,VALID,22.8818,VALID,70,VALID,0.210547,
2010-12-06, 00:16:04,VALID,996.346,VALID,0,VALID,93.9664,VALID,0,VALID,22.8427,VALID,70,VALID,0,
2010-12-06, 00:17:04,VALID,996.289,VALID,0,VALID,93.9969,VALID,0,VALID,22.8427,VALID,70,VALID,0,
2010-12-06, 00:18:04,VALID,996.293,VALID,0,VALID,93.9817,VALID,0,VALID,22.864,VALID,70,VALID,0,
2010-12-06, 00:19:04,VALID,996.272,VALID,0,VALID,93.9817,VALID,0,VALID,22.8818,VALID,70,VALID,0,
2010-12-06, 00:20:04,VALID,996.273,VALID,0,VALID,93.974,VALID,0,VALID,22.9013,VALID,70,VALID,0,
2010-12-06, 00:21:04,VALID,996.308,VALID,0,VALID,93.9588,VALID,0,VALID,22.9208,VALID,70,VALID,0,
2010-12-06, 00:22:04,VALID,996.278,VALID,0,VALID,93.9664,VALID,0,VALID,22.9208,VALID,70,VALID,0,
2010-12-06, 00:23:04,VALID,996.266,VALID,0,VALID,93.9588,VALID,0,VALID,22.942,VALID,50,VALID,0.155078,
2010-12-06, 00:24:04,VALID,996.254,VALID,0,VALID,93.9511,VALID,0,VALID,22.9598,VALID,40,VALID,0.66875,
2010-12-06, 00:25:04,VALID,996.278,VALID,0,VALID,93.9511,VALID,0,VALID,22.9615,VALID,40,VALID,0.755078,
2010-12-06, 00:26:04,VALID,996.258,VALID,0,VALID,93.974,VALID,0,VALID,22.9403,VALID,57,VALID,1.01523,
2010-12-06, 00:27:04,VALID,996.257,VALID,0,VALID,93.9664,VALID,0,VALID,22.9598,VALID,70,VALID,0.953516,
2010-12-06, 00:28:04,VALID,996.289,VALID,0,VALID,93.9664,VALID,0,VALID,22.9811,VALID,70,VALID,0.723047,
2010-12-06, 00:29:04,VALID,996.299,VALID,0,VALID,93.9664,VALID,0,VALID,22.9598,VALID,70,VALID,0.758984,
2010-12-06, 00:30:04,VALID,996.307,VALID,0,VALID,93.9511,VALID,0,VALID,22.9598,VALID,67,VALID,0.548828,
2010-12-06, 00:31:04,VALID,996.286,VALID,0,VALID,93.9588,VALID,0,VALID,22.9403,VALID,42,VALID,0.788281,
2010-12-06, 00:32:04,VALID,996.281,VALID,0,VALID,93.9511,VALID,0,VALID,22.9208,VALID,32,VALID,0.719531,
2010-12-06, 00:33:04,VALID,996.254,VALID,0,VALID,93.9817,VALID,0,VALID,22.8818,VALID,32,VALID,0.673047,
2010-12-06, 00:34:04,VALID,996.197,VALID,0,VALID,93.9664,VALID,0,VALID,22.8623,VALID,32,VALID,0.729297,
2010-12-06, 00:35:04,VALID,996.17,VALID,0,VALID,93.974,VALID,0,VALID,22.8427,VALID,32,VALID,0.610547,
2010-12-06, 00:36:04,VALID,996.13,VALID,0,VALID,93.9817,VALID,0,VALID,22.8818,VALID,32,VALID,0.449609,
2010-12-06, 00:37:04,VALID,996.125,VALID,0,VALID,93.974,VALID,0,VALID,22.8818,VALID,32,VALID,0.343359,
2010-12-06, 00:38:04,VALID,996.142,VALID,0,VALID,93.974,VALID,0,VALID,22.9225,VALID,32,VALID,0.328906,
2010-12-06, 00:39:04,VALID,996.126,VALID,0,VALID,93.9893,VALID,0,VALID,22.8818,VALID,32,VALID,0.428906,
2010-12-06, 00:40:04,VALID,996.112,VALID,0,VALID,93.9817,VALID,0,VALID,22.8818,VALID,32,VALID,0.395312,
2010-12-06, 00:41:04,VALID,996.14,VALID,0,VALID,93.974,VALID,0,VALID,22.9208,VALID,32,VALID,0.461719,
2010-12-06, 00:42:04,VALID,996.098,VALID,0,VALID,93.9817,VALID,0,VALID,22.9013,VALID,32,VALID,0.564062,
2010-12-06, 00:43:04,VALID,996.122,VALID,0,VALID,93.974,VALID,0,VALID,22.9013,VALID,32,VALID,0.403516,
2010-12-06, 00:44:04,VALID,996.12,VALID,0,VALID,93.9817,VALID,0,VALID,22.8818,VALID,32,VALID,0.378125,
2010-12-06, 00:45:04,VALID,996.093,VALID,0,VALID,93.9588,VALID,0,VALID,22.9013,VALID,32,VALID,0.41875,
2010-12-06, 00:46:04,VALID,996.109,VALID,0,VALID,93.974,VALID,0,VALID,22.8818,VALID,32,VALID,0.259766,
2010-12-06, 00:47:04,VALID,996.108,VALID,0,VALID,93.974,VALID,0,VALID,22.942,VALID,32,VALID,0,
2010-12-06, 00:48:04,VALID,996.101,VALID,0,VALID,93.974,VALID,0,VALID,22.9013,VALID,32,VALID,0,
2010-12-06, 00:49:04,VALID,996.072,VALID,0,VALID,93.9893,VALID,0,VALID,22.9013,VALID,32,VALID,0,
2010-12-06, 00:50:04,VALID,996.1,VALID,0,VALID,93.9817,VALID,0,VALID,22.8835,VALID,32,VALID,0,
2010-12-06, 00:51:04,VALID,996.125,VALID,0,VALID,93.9817,VALID,0,VALID,22.8427,VALID,32,VALID,0,
2010-12-06, 00:52:04,VALID,996.117,VALID,0,VALID,93.9893,VALID,0,VALID,22.8623,VALID,32,VALID,0,
2010-12-06, 00:53:04,VALID,996.12,VALID,0,VALID,93.9969,VALID,0,VALID,22.8427,VALID,32,VALID,0.228906,
2010-12-06, 00:54:04,VALID,996.072,VALID,0,VALID,93.9817,VALID,0,VALID,22.8835,VALID,32,VALID,0,
2010-12-06, 00:55:04,VALID,996.094,VALID,0,VALID,93.974,VALID,0,VALID,22.88,VALID,32,VALID,0.0996094,
2010-12-06, 00:56:04,VALID,996.098,VALID,0,VALID,93.974,VALID,0,VALID,22.9013,VALID,35,VALID,0.660937,
2010-12-06, 00:57:04,VALID,996.053,VALID,0,VALID,93.9511,VALID,0,VALID,22.8605,VALID,69,VALID,0.602344,
2010-12-06, 00:58:04,VALID,996.009,VALID,0,VALID,93.9893,VALID,0,VALID,22.8623,VALID,69,VALID,0.273828,
2010-12-06, 00:59:04,VALID,996.001,VALID,0,VALID,93.9817,VALID,0,VALID,22.802,VALID,69,VALID,0,
2010-12-06, 01:00:04,VALID,995.959,VALID,0,VALID,94.0122,VALID,0.112286,VALID,22.7825,VALID,69,VALID,0,
2010-12-06, 01:01:04,VALID,995.968,VALID,0,VALID,93.9969,VALID,0,VALID,22.7842,VALID,69,VALID,0,
2010-12-06, 01:02:04,VALID,995.944,VALID,0,VALID,94.0045,VALID,0,VALID,22.7435,VALID,69,VALID,0.0886719,
2010-12-06, 01:03:04,VALID,995.945,VALID,0,VALID,93.9969,VALID,0.112286,VALID,22.7435,VALID,69,VALID,0,
2010-12-06, 01:04:04,VALID,995.904,VALID,0,VALID,93.9969,VALID,0,VALID,22.7435,VALID,69,VALID,0,
2010-12-06, 01:05:04,VALID,995.893,VALID,0,VALID,94.0045,VALID,0,VALID,22.7435,VALID,69,VALID,0.147656,
2010-12-06, 01:06:04,VALID,995.854,VALID,0,VALID,93.9969,VALID,0,VALID,22.7825,VALID,69,VALID,0,
2010-12-06, 01:07:04,VALID,995.834,VALID,0,VALID,94.0045,VALID,0,VALID,22.8037,VALID,69,VALID,0,
2010-12-06, 01:08:04,VALID,995.779,VALID,0,VALID,94.0045,VALID,0,VALID,22.802,VALID,69,VALID,0,
2010-12-06, 01:09:04,VALID,995.786,VALID,0,VALID,93.9969,VALID,0,VALID,22.8037,VALID,69,VALID,0,
2010-12-06, 01:10:04,VALID,995.754,VALID,0,VALID,94.0122,VALID,0,VALID,22.7257,VALID,69,VALID,0,
2010-12-06, 01:11:04,VALID,995.755,VALID,0,VALID,94.0122,VALID,0,VALID,22.7062,VALID,69,VALID,0,
2010-12-06, 01:12:04,VALID,995.745,VALID,0,VALID,94.0351,VALID,0,VALID,22.6672,VALID,69,VALID,0,
2010-12-06, 01:13:04,VALID,995.73,VALID,0,VALID,94.0122,VALID,0,VALID,22.7062,VALID,69,VALID,0,
2010-12-06, 01:14:04,VALID,995.689,VALID,0,VALID,94.0198,VALID,0,VALID,22.7469,VALID,69,VALID,0,
2010-12-06, 01:15:04,VALID,995.688,VALID,0,VALID,94.0045,VALID,0,VALID,22.7257,VALID,69,VALID,0,
2010-12-06, 01:16:04,VALID,995.634,VALID,0,VALID,94.0045,VALID,0,VALID,22.7257,VALID,69,VALID,0,
2010-12-06, 01:17:04,VALID,995.618,VALID,0,VALID,94.0122,VALID,0,VALID,22.6867,VALID,69,VALID,0,
2010-12-06, 01:18:04,VALID,995.602,VALID,0,VALID,94.0274,VALID,0,VALID,22.6672,VALID,35,VALID,0.542188,
2010-12-06, 01:19:04,VALID,995.585,VALID,0,VALID,94.0045,VALID,0,VALID,22.7062,VALID,8,VALID,0.0519531,
2010-12-06, 01:20:04,VALID,995.522,VALID,0,VALID,94.0045,VALID,0,VALID,22.7257,VALID,8,VALID,0,
2010-12-06, 01:21:04,VALID,995.517,VALID,0,VALID,93.9969,VALID,0,VALID,22.7842,VALID,92,VALID,0.704297,
2010-12-06, 01:22:04,VALID,995.531,VALID,0,VALID,93.9969,VALID,0,VALID,22.8232,VALID,92,VALID,0.688281,
2010-12-06, 01:23:04,VALID,995.502,VALID,0,VALID,94.0122,VALID,0,VALID,22.7842,VALID,92,VALID,0.536328,
2010-12-06, 01:24:04,VALID,995.495,VALID,0,VALID,93.9969,VALID,0,VALID,22.786,VALID,92,VALID,0.496875,
2010-12-06, 01:25:04,VALID,995.482,VALID,0,VALID,94.0274,VALID,0,VALID,22.7257,VALID,92,VALID,0.439063,
2010-12-06, 01:26:04,VALID,995.489,VALID,0,VALID,94.0274,VALID,0,VALID,22.7257,VALID,92,VALID,0.564453,
2010-12-06, 01:27:04,VALID,995.444,VALID,0,VALID,94.0198,VALID,0,VALID,22.7257,VALID,92,VALID,0.535547,
2010-12-06, 01:28:04,VALID,995.475,VALID,0,VALID,94.0122,VALID,0,VALID,22.7452,VALID,92,VALID,0.279687,
2010-12-06, 01:29:04,VALID,995.416,VALID,0,VALID,94.0122,VALID,0,VALID,22.7452,VALID,92,VALID,0,
2010-12-06, 01:30:04,VALID,995.423,VALID,0,VALID,94.0122,VALID,0,VALID,22.7257,VALID,92,VALID,0,
2010-12-06, 01:31:04,VALID,995.383,VALID,0,VALID,94.0045,VALID,0,VALID,22.7062,VALID,92,VALID,0,
2010-12-06, 01:32:04,VALID,995.377,VALID,0,VALID,94.0274,VALID,0,VALID,22.7062,VALID,92,VALID,0,
2010-12-06, 01:33:04,VALID,995.358,VALID,0,VALID,94.0045,VALID,0,VALID,22.7257,VALID,92,VALID,0,
2010-12-06, 01:34:04,VALID,995.311,VALID,0,VALID,94.0122,VALID,0,VALID,22.7664,VALID,92,VALID,0.598437,
2010-12-06, 01:35:04,VALID,995.323,VALID,0,VALID,93.9893,VALID,0,VALID,22.7647,VALID,114,VALID,0.826172,
2010-12-06, 01:36:04,VALID,995.321,VALID,0,VALID,93.9893,VALID,0,VALID,22.7452,VALID,114,VALID,0.767969,
2010-12-06, 01:37:04,VALID,995.321,VALID,0,VALID,93.9969,VALID,0,VALID,22.7257,VALID,114,VALID,0.511719,
2010-12-06, 01:38:04,VALID,995.302,VALID,0,VALID,94.0122,VALID,0,VALID,22.7274,VALID,114,VALID,0.480859,
2010-12-06, 01:39:04,VALID,995.296,VALID,0,VALID,94.0351,VALID,0,VALID,22.7257,VALID,114,VALID,0.680859,
2010-12-06, 01:40:04,VALID,995.295,VALID,0,VALID,94.0198,VALID,0,VALID,22.7452,VALID,114,VALID,0.715234,
2010-12-06, 01:41:04,VALID,995.259,VALID,0,VALID,94.0122,VALID,0,VALID,22.7647,VALID,114,VALID,0.736328,
2010-12-06, 01:42:04,VALID,995.255,VALID,0,VALID,94.0045,VALID,0,VALID,22.786,VALID,114,VALID,0.634375,
2010-12-06, 01:43:04,VALID,995.244,VALID,0,VALID,94.0045,VALID,0,VALID,22.7842,VALID,114,VALID,0.339844,
2010-12-06, 01:44:04,VALID,995.239,VALID,0,VALID,94.0045,VALID,0,VALID,22.7842,VALID,114,VALID,0.0308594,
2010-12-06, 01:45:04,VALID,995.225,VALID,0,VALID,94.0274,VALID,0,VALID,22.7842,VALID,114,VALID,0,
2010-12-06, 01:46:04,VALID,995.196,VALID,0,VALID,94.0122,VALID,0,VALID,22.7842,VALID,114,VALID,0.20625,
2010-12-06, 01:47:04,VALID,995.185,VALID,0,VALID,94.0045,VALID,0,VALID,22.7647,VALID,80,VALID,0.4375,
2010-12-06, 01:48:04,VALID,995.165,VALID,0,VALID,94.0274,VALID,0,VALID,22.7257,VALID,80,VALID,0.623438,
2010-12-06, 01:49:04,VALID,995.161,VALID,0,VALID,93.9817,VALID,0,VALID,22.7062,VALID,55,VALID,0.706641,
2010-12-06, 01:50:04,VALID,995.128,VALID,0,VALID,94.0198,VALID,0,VALID,22.6867,VALID,55,VALID,0.598047,
2010-12-06, 01:51:04,VALID,995.16,VALID,0,VALID,94.0198,VALID,0,VALID,22.6867,VALID,55,VALID,0.575,
2010-12-06, 01:52:04,VALID,995.149,VALID,0,VALID,94.0503,VALID,0,VALID,22.6672,VALID,55,VALID,0.520703,
2010-12-06, 01:53:04,VALID,995.144,VALID,0,VALID,94.0427,VALID,0,VALID,22.6282,VALID,55,VALID,0.191797,
2010-12-06, 01:54:04,VALID,995.165,VALID,0,VALID,94.0427,VALID,0,VALID,22.6087,VALID,55,VALID,0,
2010-12-06, 01:55:04,VALID,995.146,VALID,0,VALID,94.058,VALID,0,VALID,22.5909,VALID,55,VALID,0,
2010-12-06, 01:56:04,VALID,995.119,VALID,0,VALID,94.0274,VALID,0,VALID,22.5696,VALID,55,VALID,0,
2010-12-06, 01:57:04,VALID,995.082,VALID,0,VALID,94.0503,VALID,0,VALID,22.5696,VALID,55,VALID,0,
2010-12-06, 01:58:04,VALID,995.099,VALID,0,VALID,94.0503,VALID,0,VALID,22.5501,VALID,55,VALID,0,
2010-12-06, 01:59:04,VALID,995.044,VALID,0,VALID,94.058,VALID,0,VALID,22.6087,VALID,55,VALID,0,
2010-12-06, 02:00:04,VALID,995.056,VALID,0,VALID,94.0427,VALID,0,VALID,22.6672,VALID,55,VALID,0,
2010-12-06, 02:01:04,VALID,995.058,VALID,0,VALID,94.0351,VALID,0,VALID,22.6867,VALID,55,VALID,0,
2010-12-06, 02:02:04,VALID,995.065,VALID,0,VALID,94.0351,VALID,0,VALID,22.7062,VALID,55,VALID,0,
2010-12-06, 02:03:04,VALID,995.041,VALID,0,VALID,94.0351,VALID,0,VALID,22.6867,VALID,55,VALID,0,
2010-12-06, 02:04:04,VALID,995.029,VALID,0,VALID,94.0427,VALID,0,VALID,22.6867,VALID,55,VALID,0,
2010-12-06, 02:05:04,VALID,995.044,VALID,0,VALID,94.0274,VALID,0,VALID,22.685,VALID,55,VALID,0,
2010-12-06, 02:06:04,VALID,995.012,VALID,0,VALID,94.0198,VALID,0,VALID,22.7647,VALID,55,VALID,0,
2010-12-06, 02:07:04,VALID,995.017,VALID,0,VALID,94.0198,VALID,0,VALID,22.7842,VALID,55,VALID,0,
2010-12-06, 02:08:04,VALID,995.015,VALID,0,VALID,94.0122,VALID,0,VALID,22.7647,VALID,55,VALID,0,
2010-12-06, 02:09:04,VALID,995.032,VALID,0,VALID,94.0198,VALID,0,VALID,22.7435,VALID,55,VALID,0,
2010-12-06, 02:10:04,VALID,995.027,VALID,0,VALID,94.0274,VALID,0,VALID,22.7647,VALID,55,VALID,0,
2010-12-06, 02:11:04,VALID,995.038,VALID,0,VALID,94.0427,VALID,0,VALID,22.786,VALID,55,VALID,0,
2010-12-06, 02:12:04,VALID,995.042,VALID,0,VALID,94.0274,VALID,0,VALID,22.7842,VALID,55,VALID,0,
2010-12-06, 02:13:04,VALID,995.093,VALID,0,VALID,94.0198,VALID,0,VALID,22.8037,VALID,55,VALID,0,
2010-12-06, 02:14:04,VALID,995.106,VALID,0,VALID,94.0351,VALID,0,VALID,22.7842,VALID,55,VALID,0,
2010-12-06, 02:15:04,VALID,995.12,VALID,0,VALID,94.0351,VALID,0,VALID,22.7842,VALID,55,VALID,0,
2010-12-06, 02:16:04,VALID,995.144,VALID,0,VALID,94.0274,VALID,0,VALID,22.7647,VALID,55,VALID,0,
2010-12-06, 02:17:04,VALID,995.122,VALID,0,VALID,94.0274,VALID,0,VALID,22.7257,VALID,55,VALID,0,
2010-12-06, 02:18:04,VALID,995.136,VALID,0,VALID,94.0274,VALID,0,VALID,22.7062,VALID,55,VALID,0,
2010-12-06, 02:19:04,VALID,995.123,VALID,0,VALID,94.0427,VALID,0,VALID,22.6884,VALID,55,VALID,0,
2010-12-06, 02:20:04,VALID,995.128,VALID,0,VALID,94.0503,VALID,0,VALID,22.6477,VALID,55,VALID,0,
2010-12-06, 02:21:04,VALID,995.136,VALID,0,VALID,94.0122,VALID,0,VALID,22.6867,VALID,55,VALID,0,
2010-12-06, 02:22:04,VALID,995.144,VALID,0,VALID,94.0351,VALID,0,VALID,22.7257,VALID,55,VALID,0,
2010-12-06, 02:23:04,VALID,995.16,VALID,0,VALID,94.0274,VALID,0,VALID,22.7647,VALID,55,VALID,0,
2010-12-06, 02:24:04,VALID,995.164,VALID,0,VALID,94.0198,VALID,0,VALID,22.7842,VALID,55,VALID,0,
2010-12-06, 02:25:04,VALID,995.196,VALID,0,VALID,94.0351,VALID,0,VALID,22.7469,VALID,357,VALID,0,
2010-12-06, 02:26:04,VALID,995.151,VALID,0,VALID,94.0198,VALID,0,VALID,22.6867,VALID,357,VALID,0.654297,
2010-12-06, 02:27:04,VALID,995.185,VALID,0,VALID,94.0122,VALID,0,VALID,22.6884,VALID,357,VALID,0.773047,
2010-12-06, 02:28:04,VALID,995.189,VALID,0,VALID,94.0274,VALID,0,VALID,22.6672,VALID,357,VALID,0.691406,
2010-12-06, 02:29:04,VALID,995.182,VALID,0,VALID,94.0274,VALID,0,VALID,22.6867,VALID,357,VALID,0.64375,
2010-12-06, 02:30:04,VALID,995.201,VALID,0,VALID,94.0351,VALID,0,VALID,22.7274,VALID,357,VALID,0.4,
2010-12-06, 02:31:04,VALID,995.214,VALID,0,VALID,94.0198,VALID,0,VALID,22.7062,VALID,357,VALID,0.237891,
2010-12-06, 02:32:04,VALID,995.204,VALID,0,VALID,94.0274,VALID,0,VALID,22.7257,VALID,357,VALID,0.00195313,
2010-12-06, 02:33:04,VALID,995.22,VALID,0,VALID,94.0198,VALID,0,VALID,22.7469,VALID,357,VALID,0,
2010-12-06, 02:34:04,VALID,995.192,VALID,0,VALID,94.0198,VALID,0,VALID,22.7257,VALID,357,VALID,0,
2010-12-06, 02:35:04,VALID,995.231,VALID,0,VALID,94.0198,VALID,0,VALID,22.7257,VALID,357,VALID,0,
2010-12-06, 02:36:04,VALID,995.258,VALID,0,VALID,94.0427,VALID,0,VALID,22.7452,VALID,357,VALID,0,
2010-12-06, 02:37:04,VALID,995.264,VALID,0,VALID,94.0274,VALID,0,VALID,22.7257,VALID,357,VALID,0,
2010-12-06, 02:38:04,VALID,995.266,VALID,0,VALID,94.0427,VALID,0,VALID,22.7062,VALID,357,VALID,0,
2010-12-06, 02:39:04,VALID,995.315,VALID,0,VALID,94.0351,VALID,0,VALID,22.7257,VALID,357,VALID,0,
2010-12-06, 02:40:04,VALID,995.281,VALID,0,VALID,94.0351,VALID,0,VALID,22.7062,VALID,357,VALID,0,
2010-12-06, 02:41:04,VALID,995.291,VALID,0,VALID,94.0427,VALID,0,VALID,22.6867,VALID,357,VALID,0,
2010-12-06, 02:42:04,VALID,995.28,VALID,0,VALID,94.0427,VALID,0,VALID,22.6867,VALID,357,VALID,0,
2010-12-06, 02:43:04,VALID,995.282,VALID,0,VALID,94.0274,VALID,0,VALID,22.6672,VALID,357,VALID,0,
2010-12-06, 02:44:04,VALID,995.313,VALID,0,VALID,94.0503,VALID,0,VALID,22.6867,VALID,357,VALID,0,
2010-12-06, 02:45:04,VALID,995.339,VALID,0,VALID,94.0274,VALID,0,VALID,22.7257,VALID,357,VALID,0,
2010-12-06, 02:46:04,VALID,995.305,VALID,0,VALID,94.0427,VALID,0,VALID,22.7664,VALID,357,VALID,0,
2010-12-06, 02:47:04,VALID,995.34,VALID,0,VALID,94.0274,VALID,0,VALID,22.786,VALID,357,VALID,0.3875,
2010-12-06, 02:48:04,VALID,995.317,VALID,0,VALID,94.0274,VALID,0,VALID,22.7647,VALID,357,VALID,0.376953,
2010-12-06, 02:49:04,VALID,995.309,VALID,0,VALID,94.0274,VALID,0,VALID,22.7452,VALID,357,VALID,0.542188,
2010-12-06, 02:50:04,VALID,995.292,VALID,0,VALID,94.0274,VALID,0,VALID,22.7452,VALID,1,VALID,0.606641,
2010-12-06, 02:51:04,VALID,995.299,VALID,0,VALID,94.0198,VALID,0,VALID,22.7452,VALID,1,VALID,0.547266,
2010-12-06, 02:52:04,VALID,995.267,VALID,0,VALID,94.0122,VALID,0,VALID,22.7647,VALID,1,VALID,0.536719,
2010-12-06, 02:53:04,VALID,995.229,VALID,0,VALID,94.0274,VALID,0,VALID,22.7842,VALID,1,VALID,0.353125,
2010-12-06, 02:54:04,VALID,995.21,VALID,0,VALID,94.0122,VALID,0,VALID,22.8037,VALID,1,VALID,0.288281,
2010-12-06, 02:55:04,VALID,995.234,VALID,0,VALID,94.0198,VALID,0,VALID,22.825,VALID,1,VALID,0.131641,
2010-12-06, 02:56:04,VALID,995.22,VALID,0,VALID,94.0274,VALID,0,VALID,22.8232,VALID,1,VALID,0.251172,
2010-12-06, 02:57:04,VALID,995.209,VALID,0,VALID,94.0274,VALID,0,VALID,22.8427,VALID,1,VALID,0.436328,
2010-12-06, 02:58:04,VALID,995.259,VALID,0,VALID,94.0045,VALID,0,VALID,22.8835,VALID,1,VALID,0.544922,
2010-12-06, 02:59:04,VALID,995.263,VALID,0,VALID,94.0198,VALID,0,VALID,22.8623,VALID,1,VALID,0.419922,
2010-12-06, 03:00:04,VALID,995.253,VALID,0,VALID,94.0198,VALID,0,VALID,22.8818,VALID,1,VALID,0.284766,
2010-12-06, 03:01:04,VALID,995.283,VALID,0,VALID,94.0045,VALID,0,VALID,22.8818,VALID,1,VALID,0.260156,
2010-12-06, 03:02:04,VALID,995.297,VALID,0,VALID,94.0045,VALID,0,VALID,22.9225,VALID,1,VALID,0.175,
2010-12-06, 03:03:04,VALID,995.299,VALID,0,VALID,94.0198,VALID,0,VALID,22.8818,VALID,1,VALID,0,
2010-12-06, 03:04:04,VALID,995.3,VALID,0,VALID,93.9969,VALID,0,VALID,22.903,VALID,1,VALID,0,
2010-12-06, 03:05:04,VALID,995.295,VALID,0,VALID,94.0122,VALID,0,VALID,22.9225,VALID,1,VALID,0,
2010-12-06, 03:06:04,VALID,995.321,VALID,0,VALID,94.0122,VALID,0,VALID,22.9208,VALID,1,VALID,0,
2010-12-06, 03:07:04,VALID,995.35,VALID,0,VALID,94.0045,VALID,0,VALID,22.9208,VALID,1,VALID,0.442578,
2010-12-06, 03:08:04,VALID,995.338,VALID,0,VALID,94.0045,VALID,0,VALID,22.9403,VALID,1,VALID,0.741406,
2010-12-06, 03:09:04,VALID,995.345,VALID,0,VALID,94.0122,VALID,0,VALID,22.9598,VALID,155,VALID,1.00195,
2010-12-06, 03:10:04,VALID,995.355,VALID,0,VALID,93.9893,VALID,0,VALID,22.9793,VALID,155,VALID,1.06367,
2010-12-06, 03:11:04,VALID,995.309,VALID,0,VALID,93.9969,VALID,0,VALID,22.9811,VALID,155,VALID,1.08945,
2010-12-06, 03:12:04,VALID,995.316,VALID,0,VALID,93.9969,VALID,0,VALID,22.9598,VALID,151,VALID,0.970312,
2010-12-06, 03:13:04,VALID,995.322,VALID,0,VALID,94.0198,VALID,0,VALID,22.9403,VALID,151,VALID,1.00234,
2010-12-06, 03:14:04,VALID,995.284,VALID,0,VALID,94.0122,VALID,0,VALID,22.9403,VALID,151,VALID,0.792188,
2010-12-06, 03:15:04,VALID,995.321,VALID,0,VALID,94.0045,VALID,0,VALID,22.9615,VALID,151,VALID,0.758203,
2010-12-06, 03:16:04,VALID,995.275,VALID,0,VALID,94.0122,VALID,0,VALID,22.9208,VALID,150,VALID,0.901953,
2010-12-06, 03:17:04,VALID,995.246,VALID,0,VALID,93.9969,VALID,0,VALID,22.9208,VALID,149,VALID,0.697656,
2010-12-06, 03:18:04,VALID,995.253,VALID,0,VALID,94.0122,VALID,0,VALID,22.9013,VALID,149,VALID,0.557422,
2010-12-06, 03:19:04,VALID,995.276,VALID,0,VALID,93.9969,VALID,0,VALID,22.9013,VALID,150,VALID,0.251563,
2010-12-06, 03:20:04,VALID,995.288,VALID,0,VALID,93.9893,VALID,0,VALID,22.9208,VALID,150,VALID,0,
2010-12-06, 03:21:04,VALID,995.293,VALID,0,VALID,94.0045,VALID,0,VALID,22.9615,VALID,150,VALID,0.489844,
2010-12-06, 03:22:04,VALID,995.297,VALID,0,VALID,94.0122,VALID,0,VALID,22.9793,VALID,150,VALID,0.332812,
2010-12-06, 03:23:04,VALID,995.266,VALID,0,VALID,93.9893,VALID,0,VALID,23.0006,VALID,150,VALID,0.426172,
2010-12-06, 03:24:04,VALID,995.263,VALID,0,VALID,94.0122,VALID,0,VALID,22.9793,VALID,149,VALID,0.06875,
2010-12-06, 03:25:04,VALID,995.235,VALID,0,VALID,94.0045,VALID,0,VALID,22.9793,VALID,149,VALID,0,
2010-12-06, 03:26:04,VALID,995.248,VALID,0,VALID,93.9969,VALID,0,VALID,22.9811,VALID,149,VALID,0.525391,
2010-12-06, 03:27:04,VALID,995.223,VALID,0,VALID,94.0122,VALID,0,VALID,22.9598,VALID,147,VALID,0.791797,
2010-12-06, 03:28:04,VALID,995.22,VALID,0,VALID,93.9893,VALID,0,VALID,22.9403,VALID,146,VALID,0.653125,
2010-12-06, 03:29:04,VALID,995.176,VALID,0,VALID,94.0045,VALID,0,VALID,22.9403,VALID,146,VALID,0.557031,
2010-12-06, 03:30:04,VALID,995.171,VALID,0,VALID,94.0045,VALID,0,VALID,22.9598,VALID,146,VALID,0.462891,
2010-12-06, 03:31:04,VALID,995.181,VALID,0,VALID,93.9817,VALID,0,VALID,22.9615,VALID,146,VALID,0.403516,
2010-12-06, 03:32:04,VALID,995.197,VALID,0,VALID,94.0045,VALID,0,VALID,22.9598,VALID,146,VALID,0.432422,
2010-12-06, 03:33:04,VALID,995.225,VALID,0,VALID,93.9893,VALID,0,VALID,22.9793,VALID,146,VALID,0.423828,
2010-12-06, 03:34:04,VALID,995.233,VALID,0,VALID,94.0045,VALID,0,VALID,22.9598,VALID,146,VALID,0.451172,
2010-12-06, 03:35:04,VALID,995.22,VALID,0,VALID,94.0198,VALID,0,VALID,22.9598,VALID,146,VALID,0.449609,
2010-12-06, 03:36:04,VALID,995.228,VALID,0,VALID,94.0045,VALID,0,VALID,22.9598,VALID,146,VALID,0.324609,
2010-12-06, 03:37:04,VALID,995.226,VALID,0,VALID,94.0198,VALID,0,VALID,22.9615,VALID,117,VALID,0.539453,
2010-12-06, 03:38:04,VALID,995.228,VALID,0,VALID,94.0045,VALID,0,VALID,22.9013,VALID,117,VALID,0.410547,
2010-12-06, 03:39:04,VALID,995.19,VALID,0,VALID,94.0198,VALID,0,VALID,22.8818,VALID,117,VALID,0.375781,
2010-12-06, 03:40:04,VALID,995.223,VALID,0,VALID,94.0198,VALID,0,VALID,22.8623,VALID,79,VALID,0.45,
2010-12-06, 03:41:04,VALID,995.224,VALID,0,VALID,94.0045,VALID,0,VALID,22.864,VALID,79,VALID,0.686719,
2010-12-06, 03:42:04,VALID,995.209,VALID,0,VALID,94.0122,VALID,0,VALID,22.8835,VALID,79,VALID,0.167187,
2010-12-06, 03:43:04,VALID,995.198,VALID,0,VALID,94.0122,VALID,0,VALID,22.8427,VALID,79,VALID,0.340234,
2010-12-06, 03:44:04,VALID,995.241,VALID,0,VALID,94.0351,VALID,0,VALID,22.8835,VALID,79,VALID,0.348437,
2010-12-06, 03:45:04,VALID,995.258,VALID,0,VALID,94.0274,VALID,0,VALID,22.8427,VALID,79,VALID,0,
2010-12-06, 03:46:04,VALID,995.276,VALID,0,VALID,94.0274,VALID,0,VALID,22.8232,VALID,79,VALID,0.183594,
2010-12-06, 03:47:04,VALID,995.319,VALID,0,VALID,94.0198,VALID,0,VALID,22.8037,VALID,79,VALID,0.201562,
2010-12-06, 03:48:04,VALID,995.346,VALID,0,VALID,94.0198,VALID,0,VALID,22.8037,VALID,79,VALID,0.119531,
2010-12-06, 03:49:04,VALID,995.313,VALID,0,VALID,94.0122,VALID,0,VALID,22.8055,VALID,79,VALID,0.151562,
2010-12-06, 03:50:04,VALID,995.33,VALID,0,VALID,94.0198,VALID,0,VALID,22.8055,VALID,79,VALID,0.505078,
2010-12-06, 03:51:04,VALID,995.346,VALID,0,VALID,94.0198,VALID,0,VALID,22.7647,VALID,79,VALID,0.416016,
2010-12-06, 03:52:04,VALID,995.328,VALID,0,VALID,94.0122,VALID,0,VALID,22.7647,VALID,79,VALID,0.508594,